This is the latest recevied weather packets stored in our database for station/object K8RRT. If no packets are shown the sender has not sent any weather packets the latest 10 day(s).
| Time | Temp. | Humidity | Pressure | Rain* | Wind** | Luminosity | Snow |
|---|---|---|---|---|---|---|---|
| 1787918488 | 18.89° C | 99% | 1014.1 hPa | 0 mm | - | 68 W/m² | - |
| 1787918186 | 18.89° C | 99% | 1013.9 hPa | 0 mm | - | 58 W/m² | - |
| 1787917881 | 18.89° C | 99% | 1014 hPa | 0 mm | - | 51 W/m² | - |
| 1787917577 | 18.89° C | 99% | 1013.8 hPa | 0 mm | - | 47 W/m² | - |
| 1787917273 | 18.89° C | 99% | 1013.6 hPa | 0 mm | - | 37 W/m² | - |
| 1787916972 | 18.89° C | 99% | 1013.5 hPa | 0 mm | - | 33 W/m² | - |
| 1787916667 | 18.89° C | 99% | 1013.4 hPa | 0 mm | - | 24 W/m² | - |
| 1787916361 | 18.89° C | 99% | 1013.6 hPa | 0 mm | - | 20 W/m² | - |
| 1787916057 | 18.89° C | 99% | 1013.4 hPa | 0 mm | - | 16 W/m² | - |
| 1787915756 | 18.89° C | 99% | 1013.6 hPa | 0 mm | - | 12 W/m² | - |
| 1787915452 | 18.89° C | 99% | 1013.5 hPa | 0 mm | - | 8 W/m² | - |
| 1787915151 | 18.89° C | 99% | 1013 hPa | 0 mm | - | 5 W/m² | - |
| 1787914846 | 18.89° C | 99% | 1013.2 hPa | 0 mm | - | 3 W/m² | - |
| 1787914544 | 18.89° C | 99% | 1013.3 hPa | 0 mm | - | 1 W/m² | - |
| 1787914240 | 18.89° C | 99% | 1013.1 hPa | 0 mm | - | 0 W/m² | - |
| 1787913940 | 18.89° C | 99% | 1013 hPa | 0 mm | - | 0 W/m² | - |
| 1787913640 | 18.89° C | 99% | 1012.9 hPa | 0 mm | - | 0 W/m² | - |
| 1787913338 | 18.89° C | 99% | 1013 hPa | 0 mm | - | 0 W/m² | - |
| 1787913034 | 18.89° C | 99% | 1012.9 hPa | 0 mm | - | 0 W/m² | - |
| 1787912732 | 18.89° C | 99% | 1012.8 hPa | 0 mm | - | 0 W/m² | - |
| 1787912427 | 18.89° C | 99% | 1012.8 hPa | 0 mm | - | 0 W/m² | - |
| 1787912126 | 18.89° C | 99% | 1012.8 hPa | 0 mm | - | 0 W/m² | - |
| 1787911822 | 18.89° C | 99% | 1012.6 hPa | 0 mm | - | 0 W/m² | - |
| 1787911516 | 18.89° C | 99% | 1012.5 hPa | 0 mm | - | 0 W/m² | - |
| 1787911215 | 18.89° C | 99% | 1012.7 hPa | 1.78 mm | - | 0 W/m² | - |
* Rain latest hour (hover to see other rain measurements)
** Current wind speed in m/s (hover to see current wind gust speed)